Miscellaneous Local Product
Issued by NWS Hastings, NE

Home | Current Version | Previous Version | Graphics & Text | Print | Product List | Glossary On
Versions: 1 2 3 4 5 6 7 8 9 10 11 12 13 14 15 16 17 18 19 20 21 22 23 24 25 26 27 28 29 30 31 32 33 34 35 36 37 38 39 40 41 42 43 44 45 46 47 48 49 50
000
AXUS43 KGID 191402
MISGRI

GID CWA HOURLY WEATHER ROUNDUP
NATIONAL WEATHER SERVICE HASTINGS NE
800 AM CST FRI DEC 19 2014

NOTE: "FAIR" INDICATES FEW OR NO CLOUDS BELOW 12,000 FEET WITH NO
SIGNIFICANT WEATHER AND/OR OBSTRUCTIONS TO VISIBILITY.

...SOUTH CENTRAL NEBRASKA...

CITY           SKY/WX    TMP DP  RH WIND       PRES   REMARKS
GRAND ISLAND   CLOUDY    30  27  88 SW6       30.15R WCI  24
HASTINGS       CLOUDY    31  27  85 W7        30.14R WCI  24
KEARNEY        CLOUDY    27  25  93 SW8       30.14R VSB 1/2 WCI  18
ORD            NOT AVBL
YORK           CLOUDY    30  28  93 S6        30.17R WCI  24
AURORA         CLOUDY    32  29  91 SW6       30.15S WCI  26
LEXINGTON      FOG       26  25  96 W6        30.12R VSB 1/2 WCI  19
HOLDREGE       FOG       26  25  95 W7        30.13R VSB 1/4 WCI  18
HEBRON         CLOUDY    30  27  90 CALM      30.18S FOG

...NEBRASKA PANHANDLE...

CITY           SKY/WX    TMP DP  RH WIND       PRES   REMARKS
CHADRON        CLEAR      9   6  88 SW7       30.04S WCI  -2
ALLIANCE       PTCLDY     6   3  87 W7        30.04S WCI  -6
SCOTTSBLUFF    PTCLDY     6   3  87 CALM      30.07R
SIDNEY         CLEAR     13   8  81 W9        30.07S WCI   1

...WESTERN AND NORTH CENTRAL NEBRASKA...

CITY           SKY/WX    TMP DP  RH WIND       PRES   REMARKS
VALENTINE      PTCLDY    12   9  87 SW10      30.04S WCI  -1
AINSWORTH      PTCLDY    12   9  90 SW3       30.04S
ONEILL         FOG       26  26 100 SW6       30.10R VSB 1/2 WCI  20
BROKEN BOW     CLOUDY    23  21  92 SW6       30.09S FOG     WCI  16
IMPERIAL       PTCLDY    12   7  80 CALM      30.11R
NORTH PLATTE   CLEAR     12   7  80 NW3       30.10R
MCCOOK         CLEAR     16  13  88 W3        30.12S

...EASTERN NEBRASKA...

CITY           SKY/WX    TMP DP  RH WIND       PRES   REMARKS
NORFOLK        CLOUDY    29  26  89 S9        30.15S WCI  20
SO SIOUX CITY  CLOUDY    31  28  89 SE8       30.20S FOG     WCI  23
TEKAMAH        CLOUDY    31  29  92 SE6       30.22R FOG     WCI  25
COLUMBUS       CLOUDY    30  25  80 SW6       30.19R WCI  24
ALBION         CLOUDY    28  26  89 SW7       30.14R FOG     WCI  21
OMAHA EPPLEY   CLOUDY    31  28  89 SE8       30.24R FOG     WCI  23
OFFUTT AFB     CLOUDY    30  28  93 SE5       30.22S FOG     WCI  25
MILLARD        CLOUDY    32  29  90 SE5       30.22S FOG     WCI  27
LINCOLN        CLOUDY    31  28  89 S6        30.21S WCI  25
NEBRASKA CITY  CLOUDY    30  30 100 S6        30.22R FOG     WCI  24
BEATRICE       CLOUDY    30  28  93 S3        30.20S FOG
FALLS CITY     CLOUDY    28  26  92 SW6       30.24S WCI  22

...NORTHERN KANSAS...

CITY           SKY/WX    TMP DP  RH WIND       PRES   REMARKS
GOODLAND       CLEAR     26  22  84 W10       30.11R WCI  16
HILL CITY      FOG       30  29  96 W6        30.14S VSB 1/2 WCI  24
NORTON         FOG       28  27  93 W6        30.13R VSB 1/4 WCI  22
PHILLIPSBURG   CLOUDY    34  34 100 CALM      30.16R
SMITH CENTER   CLOUDY    28  28 100 SE5       30.17S FOG     WCI  23
BELOIT         CLOUDY    30  28  93 SE5       30.19R WCI  25
HAYS           CLOUDY    34  25  69 SE5       30.16R WCI  30
RUSSELL        CLOUDY    31  31 100 S3        30.16R FOG
CONCORDIA      CLOUDY    29  28  96 SE5       30.19R FOG     WCI  24
SALINA         CLOUDY    30  28  92 SE7       30.23R FOG     WCI  23
TOPEKA         CLOUDY    30  28  92 CALM      30.27R



USA.gov is the U.S. government's official web portal to all federal, state and local government web resources and services.